1st Responders/1st Detectors/Storm Spotters Weather Summary for Harrison County, KY

Forecast Maps


Reg. NEXRAD Animation


National Fire Danger: Day 1 & 2 Map

Current NWS Watch/Warnings

SPC Convective Day 1 Outlook


Day 2 Outlook

(Click images to enlarge|Page will refresh every 5 minutes)
UK Ag. Weather Center Desktop Severe Weather Service[HERE]
Harrison County, KY Hazardous Weather Outlook Webcast
(9 AM to 9 PM Mon-Fri)
[Fast]
[Dial-up]


UKAWC 1st Detectors/1st Responders Precision Weather Forecast For HARRISON County, Kentucky
(based on the NWS County Digital Forecast)

ISSUED AT 18:00 UTC ON SATURDAY JUL 20 2019
DAY SATURDAY
EDT 3HR 3P 4P 5P 6P 7P
MAX/MIN -- -- -- -- 92°
TEMP 92° 92° 92° 92° 88°
SKY COVER 36% 33% 30% 25% 21%
Clouds
DEW PT 74° 74° 74° 74° 72°
RH 58% 56% 53% 55% 59%
POP 12HR -- -- -- -- --
RAIN/SNOW (liq.equ) -- -- -- -- --
SNOWFALL -- -- -- -- --
WIND SPEED(MPH) 9 10 9 8 7
WIND Gust(MPH) 14 15 15 15 14
WIND DIR SW SW SW SW SW
DEW -- -- -- -- --
HeatIndex 103 104 103 102 97
Rain Showers -- -- -- -- --
Thunder Storm -- -- -- -- --
WIND CHILL -- -- -- -- --
SPRAY COND
DRY COND
LIVESTOCK HEATSTRESS 84.33 83.97 83.42 83.78 81.42



DAY SUNDAY MONDAY TUESDAY WEDNESDAY THURSDAY FRIDAY
EDT 6HR 8P 9P 10P 11P MIDN 1A 2A 3A 4A 5A 6A 7A 8A 9A 10A 11A NOON 1P 2P 3P 4P 5P 6P 7P 8P 9P 10P 11P MIDN 1A 2A 5A 8A 11A 2P 5P 8P 2A 8A 2P 8P 2A 8A 2P 8P 2A 8A 2P 8P 2A 8A 2P 8P
MAX/MIN -- -- -- -- -- -- -- -- -- -- -- -- 74° -- -- -- -- -- -- -- -- -- -- 92° -- -- -- -- -- -- -- -- 70° -- -- 81° -- -- 59° 77° -- -- 54° 81° -- -- 58° 83° -- -- 59° 85° --
TEMP 85° 83° 81° 79° 77° 76° 76° 74° 74° 74° 74° 74° 76° 81° 85° 90° 92° 92° 92° 90° 90° 88° 86° 85° 83° 81° 79° 77° 76° 74° 74° 70° 72° 77° 81° 81° 74° 63° 61° 76° 72° 56° 58° 79° 74° 59° 61° 81° 76° 63° 63° 85° 79°
SKY COVER 17% 18% 19% 21% 22% 24% 25% 30% 34% 39% 44% 48% 53% 57% 61% 65% 69% 73% 77% 76% 75% 74% 72% 71% 70% 60% 68% 72% 74% 79% 81% 81% 79% 84% 87% 77% 86% 61% 27% 19% 7% 6% 6% 14% 16% 3% 5% 12% 8% 7% 9% 19% 13%
Clouds
DEW PT 72° 72° 72° 72° 72° 72° 72° 72° 72° 72° 72° 72° 74° 74° 74° 74° 74° 74° 74° 74° 74° 74° 74° 72° 72° 72° 72° 72° 72° 72° 72° 70° 72° 72° 72° 70° 67° 61° 59° 58° 56° 56° 56° 56° 58° 58° 58° 58° 59° 58° 59° 58° 61°
RH 65% 67% 71% 81% 81% 84% 87% 90% 93% 93% 93% 93% 94% 78% 69% 61% 57% 56% 55% 57% 59% 60% 65% 65% 69% 73% 79% 84% 87% 93% 96% 99% 100% 81% 71% 69% 79% 96% 96% 51% 56% 96% 96% 44% 57% 92% 93% 46% 57% 87% 89% 41% 53%
POP 12HR 3% -- -- -- -- -- -- -- -- -- -- -- 5% -- -- -- -- -- -- -- -- -- -- -- 58% -- -- -- -- -- -- -- 61% -- -- -- 67% -- 30% -- 3% -- 2% -- 2% -- 1% -- 4% -- 3% -- 4%
RAIN/SNOW (liq.equ) 0.00in -- -- -- -- -- 0.00in -- -- -- -- -- 0.00in -- -- -- -- -- 0.00in -- -- -- -- -- 0.04in -- -- -- -- -- 0.13in -- 0.11in -- 0.37in -- 0.36in 0.02in 0.00in -- -- -- -- -- -- -- -- -- -- -- -- -- --
SNOWFALL 0in -- -- -- -- -- 0in -- -- -- -- -- 0in -- -- -- -- -- 0in -- -- -- -- -- 0in -- -- -- -- -- 0in -- 0in -- 0in -- 0in 0in 0in -- -- -- -- -- -- -- -- -- -- -- -- -- --
WIND SPEED(MPH) 6 5 5 5 2 2 2 2 2 2 2 2 2 5 5 6 7 7 7 7 8 8 7 7 6 5 5 5 5 2 2 2 5 7 7 8 7 6 5 7 6 1 1 6 2 0 0 5 2 1 1 5 1
WIND DIR SW SW SW SW SW SW SW SW SW SW SW SW SW SW SW SW SW SW SW SW SW SW SW SW SW SW SW SW SW SW SW SW W SW W NW N N N N N NE NE NE N E E E NE E E SW E
HeatIndex 93 89 86 79 77 76 76 74 74 74 74 74 76 86 95 100 103 102 102 100 99 98 95 93 90 87 84 77 76 74 74 70 72 77 86 84 74 63 61 76 72 56 58 79 74 59 61 81 76 63 63 84 79
Rain Showers -- -- -- -- -- -- -- -- -- -- -- -- Slight Chance Slight Chance Slight Chance Slight Chance Slight Chance Slight Chance Likely Likely Likely Likely Likely Likely Likely Likely Likely Likely Likely Likely Chance Chance Likely Likely Likely Likely Chance -- -- -- -- -- -- -- -- -- -- -- -- -- -- -- --
Thunder Storm -- -- -- -- -- -- -- -- -- -- -- -- Slight Chance Slight Chance Slight Chance Slight Chance Slight Chance Slight Chance Likely Likely Likely Likely Likely Likely Likely Likely Likely Likely Likely Likely Chance Chance Likely Likely Likely Likely Chance -- -- -- -- -- -- -- -- -- -- -- -- -- -- -- --
WIND CHILL -- -- -- -- -- -- -- -- -- -- -- -- -- -- -- -- -- -- -- -- -- -- -- -- -- -- -- -- -- -- -- -- -- -- -- -- -- -- -- -- -- -- -- -- -- -- -- -- -- -- -- -- --
SPRAY COND
DRY COND
LIVESTOCK HEATSTRESS 79.96 78.61 77.46 76.89 75.10 74.49 74.77 73.16 73.41 73.41 73.41 73.41 75.43 78.31 80.53 83.31 84.15 83.97 83.78 82.62 82.96 81.58 80.76 79.96 78.87 77.70 76.67 75.40 74.77 73.41 73.67 69.94 72.00 75.10 77.46 77.21 72.24 62.91 60.95 71.36 68.81 56.06 58.02 72.78 70.41 58.99 60.92 74.41 71.93 62.70 62.75 76.50 73.78

Click on individual weather variable above in left-hand column (ie., TEMP, RH, QPF 12HR) to view state forecast maps






NWS 48 Hr. Forecast Maps,

Regional Hourly Observations For HARRISON County, Kentucky
Issued at 200 PM EDT SAT JUL 20 2019
NORTHEAST KENTUCKY
  
CITY           SKY/WX    TMP DP  RH WIND       PRES   REMARKS
LEXINGTON      FAIR      92  72  51 SW9       30.02F HX  99           
COVINGTON      FAIR      91  72  53 S21       29.97F HX  98           
FRANKFORT      FAIR      92  74  55 SW9       29.99F HX 101           


Current NOWCAST not available:
Nowcasts are not issued routinely during fair weather. Only when
precipitation or other significant weather is occuring in this county will these
forecasts be issued. Currently, there is no short term forecast in effect.


Fire Weather Forecast For HARRISON County, KY
Provided by the National Weather Service:

Issued at: Sat Jul 20 14:05:01 EDT 2019


                      Today        Tonight      Sun          

CLOUD COVER           Mclear       Mclear       Pcldy        
PRECIP TYPE           None         None         Tstms        
CHANCE PRECIP (%)     0            0            50           
TEMP (24H TREND)      93 (+3)      73 (-1)      92           
RH % (24H TREND)      52 (-7)      94 (-4)      61           
20FTWND-VAL/AM(MPH)   Lgt/Var                   Lgt/Var      
20FTWND-RDG/PM(MPH)   SW  6        Lgt/Var      SW  6        
PRECIP AMOUNT         0.00         0.00         0.02         
MIXING HGT(FT-AGL/MSL)5117                      5305         
TRANSPORT WND (MPH)   SW 10                     SW 10        
VENT RATE (KT-FT)     52195                     51396        
DISPERSION            Good                      Good         
DSI                   SLGT UNSTBL  SLGT UNSTBL  SLGT UNSTBL  
LAL                   1            1            4            
HAINES INDEX          3            3            3            
ADI EARLY             38 FAIR      4 VERY POOR  32 FAIR      
ADI LATE              46 GEN GOOD  4 VERY POOR  29 FAIR      
MAX LVORI EARLY       8            5            5            
MAX LVORI LATE        1            6            3            

REMARKS...ADI IS ATMOSPHERIC DISPERSION INDEX BY LAVDAS.        
LVORI IS LOW VISIBILITY OCCURRENCE RISK INDEX.

.MONDAY...Showers likely and slight chance of thunderstorms. Lows
in the lower 70s. Highs in the lower 80s. Southwest winds around
5 mph. 
.TUESDAY...Partly cloudy. Lows in the lower 60s. Highs in the
upper 70s. North winds around 5 mph. 
.WEDNESDAY...Mostly clear. Lows in the upper 50s. Highs in the
lower 80s. North winds up to 5 mph. 
.THURSDAY...Mostly clear. Lows in the upper 50s. Highs in the mid
80s. Northeast winds up to 5 mph. 
.FRIDAY...Mostly clear. Lows in the lower 60s. Highs in the mid
80s. West winds up to 5 mph. 

SPC's Fire Weather Web Tool (Excellent!), SPC's Fire Weather Outlooks, NWS Fire Weather WEB, Fire Danger Class Map,
Keetch-Byram Drought Index, ROMAN Web, Haines Index ,
WFAS's 10-hr Dead Fuel Moist., WFAS's 100-hr Dead Fuel Moist., Probablity of Ignition, Visual blackness Map, Palmer Drought Index, HPC's Rainfall Forecast Maps


Hazardous Weather Outlook For HARRISON County, Kentucky
323 AM EDT Sat Jul 20 2019 /223 AM CDT Sat Jul 20 2019/

   EXCESSIVE HEAT WARNING IN EFFECT UNTIL 8 PM EDT /7 PM CDT/
SUNDAY  

This hazardous weather outlook is for portions of south central
Indiana and Central Kentucky.

 DAY ONE  Today and Tonight.

Very hot and humid conditions will push heat index readings over 100
degrees this afternoon. See Excessive Heat Warning for additional 
details.

Isolated thunderstorms will be possible across south-central Kentucky
this afternoon. The main threats with the storms will be gusty winds
and locally heavy rainfall. 

 DAYS TWO THROUGH SEVEN  Sunday through Friday.

A cold front will move through the region late Sunday night into  
Monday bringing a round of storms. Some of those storms could be 
strong with torrential rainfall and gusty winds being the main 
threats.

 SPOTTER INFORMATION STATEMENT  

Spotter activation is not anticipated at this time. 

Latest HARRISON County, Kentucky Watches, Warnings and Advisories.
Additional Drought Info.: UKAWC Drought Page, Kentucky Drought Watch


7-Day Forecast For HARRISON County, KY


EXCESSIVE HEAT WARNING IN EFFECT UNTIL 8 PM EDT SUNDAY

THIS AFTERNOON
Mostly sunny late in the morning then becoming partly cloudy. Highs in the lower 90s. Southwest winds 5 to 10 mph.

TONIGHT
Mostly clear. Lows in the mid 70s. Southwest winds 5 to 10 mph.

SUNDAY
Showers and thunderstorms likely. Highs in the lower 90s. Southwest winds up to 10 mph. Chance of precipitation 60 percent.

SUNDAY NIGHT
Showers and thunderstorms likely. Lows in the lower 70s. Southwest winds up to 10 mph. Chance of precipitation 60 percent.

MONDAY
Showers and thunderstorms likely. Highs in the lower 80s. West winds 5 to 10 mph. Chance of precipitation 70 percent.

MONDAY NIGHT
Mostly cloudy with a 30 percent chance of showers and thunderstorms. Lows around 60.

TUESDAY
Mostly sunny. Highs in the upper 70s.

TUESDAY NIGHT
Mostly clear. Lows in the mid 50s.

WEDNESDAY
Mostly sunny. Highs around 80.

WEDNESDAY NIGHT
Mostly clear. Lows in the upper 50s.

THURSDAY
Mostly sunny. Highs in the lower 80s.

THURSDAY NIGHT
Mostly clear. Lows in the lower 60s.

FRIDAY
Mostly sunny. Highs in the mid 80s.

Ag Weather Center, Department of Biosystems & Agricultural Engineering, University of Kentucky